EW6426 Weather Reports


Display with metric or nautical units.
time (UTC)temp
F
wind
direction
speed
MPH
gust
MPH
rain 1hr
in
rain 24hr
in
rain mn
in
humidity
%
barometer
mb
20260504044551 58 247 0.0 0.0 0.00 0.00 0.00 54 998.1
20260504043055 58 261 0.0 0.0 0.00 0.00 0.00 52 998.4
20260504041546 58 278 0.0 0.0 0.00 0.00 0.00 51 998.7
20260504040043 59 240 0.0 0.0 0.00 0.00 0.00 50 998.8
20260504034542 59 268 0.0 0.0 0.00 0.00 0.00 49 999.1
20260504033040 58 248 0.0 0.0 0.00 0.00 0.00 51 999.2
20260504031538 59 259 0.0 0.0 0.00 0.00 0.00 50 999.4
20260504030036 59 255 0.0 0.0 0.00 0.00 0.00 49 999.6
20260504024535 59 253 0.0 0.0 0.00 0.00 0.00 49 999.8
20260504023035 59 226 0.0 0.0 0.00 0.00 0.00 47 999.8
20260504021532 60 265 0.0 0.0 0.00 0.00 0.00 46 999.8
20260504020032 61 251 0.0 0.0 0.00 0.00 0.00 45 1000.0
20260504014538 64 247 0.0 0.0 0.00 0.00 0.00 41 1000.2
20260504013035 65 259 0.0 0.0 0.00 0.00 0.00 39 1000.5
20260504011525 66 267 0.0 0.0 0.00 0.00 0.00 37 1000.6
20260504010023 67 266 0.0 0.0 0.00 0.00 0.00 35 1001.0
20260504004520 68 251 0.0 0.0 0.00 0.00 0.00 33 1001.3
20260504003017 69 322 0.0 0.0 0.00 0.00 0.00 30 1001.6
20260504001515 70 265 0.0 0.0 0.00 0.00 0.00 31 1002.0
20260504000012 70 261 0.0 0.0 0.00 0.00 0.00 29 1002.3
20260503234511 70 281 0.0 0.0 0.00 0.00 0.00 29 1002.7
20260503233014 70 308 0.0 0.0 0.00 0.00 0.00 28 1003.0
20260503231506 70 240 0.0 0.0 0.00 0.00 0.00 28 1003.2
20260503230006 70 258 0.0 0.0 0.00 0.00 0.00 27 1003.5
20260503224504 70 286 0.0 0.0 0.00 0.00 0.00 27 1003.7
20260503223059 70 310 0.0 0.0 0.00 0.00 0.00 28 1004.0
20260503221603 69 312 0.0 0.0 0.00 0.00 0.00 27 1004.4
20260503220054 69 311 0.0 0.0 0.00 0.00 0.00 27 1004.6
20260503214558 70 297 0.0 0.0 0.00 0.00 0.00 26 1004.9
20260503213049 69 288 0.0 0.0 0.00 0.00 0.00 26 1005.3
20260503211548 69 313 0.0 0.0 0.00 0.00 0.00 26 1005.6
20260503210045 69 300 0.0 0.0 0.00 0.00 0.00 26 1005.9
20260503204543 69 300 0.0 0.0 0.00 0.00 0.00 24 1006.3
20260503203057 69 265 0.0 0.0 0.00 0.00 0.00 25 1006.5
20260503201536 68 263 0.0 0.0 0.00 0.00 0.00 23 1006.9
20260503200032 67 250 0.0 0.0 0.00 0.00 0.00 23 1007.2
20260503194539 67 315 0.0 0.0 0.00 0.00 0.00 23 1007.5
20260503193027 67 250 0.0 0.0 0.00 0.00 0.00 26 1007.8
20260503191524 67 280 0.0 0.0 0.00 0.00 0.00 24 1008.0
20260503190036 66 303 0.0 0.0 0.00 0.00 0.00 28 1008.3
20260503184523 66 304 0.0 0.0 0.00 0.00 0.00 28 1008.5
20260503183017 65 294 0.0 0.0 0.00 0.00 0.00 29 1008.9
20260503181512 65 306 0.0 0.0 0.00 0.00 0.00 30 1009.2
20260503180010 65 309 0.0 0.0 0.00 0.00 0.00 31 1009.3
20260503174508 64 335 0.0 0.0 0.00 0.00 0.00 31 1009.8
20260503173007 64 310 0.0 0.0 0.00 0.00 0.00 32 1010.1
20260503171505 64 319 0.0 0.0 0.00 0.00 0.00 33 1010.3
20260503130125 44 360 0.0 0.0 0.00 0.00 0.00 72 1011.9
20260503081559 43 44 0.0 0.0 0.00 0.00 0.00 77 1010.7